Location: *
(43.0409°N, 0.1694°E)
Time: 23:13:01
(UTC+00:00)

Meteor 1-18 Rocket - Pass Details

Date: 03 October 2023
Orbit: 837 x 908 km, 81.2° (Epoch: 05 December)

Event Time Altitude Azimuth Distance (km) Brightness Sun altitude
Rises 05:22:01 0° 197° (SSW) 3,512 7.2 -7.5°
Reaches altitude 10° 05:24:30 10° 200° (SSW) 2,569 6.5 -7.0°
Maximum altitude 05:30:19 66° 282° (WNW) 973 4.3 -6.0°
Drops below altitude 10° 05:36:05 10° 5° (N) 2,545 6.8 -4.9°
Sets 05:38:33 0° 8° (N) 3,476 7.5 -4.5°
